Regional Weather Roundup
Issued by NWS Charleston, WV

Home | Current Version | Previous Version | Text Only | Print | Product List | Glossary Off
Versions: 1 2 3 4 5 6 7 8 9 10 11 12 13 14 15 16 17 18 19 20 21 22 23 24 25 26 27 28 29 30 31 32 33 34 35 36 37 38 39 40 41 42 43 44 45 46 47 48 49 50

000
ASUS41 KRLX 211310
RWRRLX
West Virginia Regional Weather Roundup
National Weather Service Charleston WV
800 AM EST SUN DEC 21 2014

Note: "fair" indicates few or no clouds below 12,000 feet with no
significant weather and/or obstructions to visibility.

WVZ003-211400-
Northern Panhandle of West Virginia

CITY           SKY/WX    TMP DP  RH WIND       PRES   REMARKS
WHEELING       CLOUDY    28  22  78 CALM      30.30S
$$

WVZ009-211400-
Northwest West Virginia

CITY           SKY/WX    TMP DP  RH WIND       PRES   REMARKS
PARKERSBURG    CLOUDY    31  24  75 CALM      30.34F
$$

WVZ006-211400-
Western West Virginia

CITY           SKY/WX    TMP DP  RH WIND       PRES   REMARKS
HUNTINGTON     CLOUDY    31  27  85 NE5       30.31S
$$

WVZ015-211400-
West Central West Virginia

CITY           SKY/WX    TMP DP  RH WIND       PRES   REMARKS
CHARLESTON     PTCLDY    27  24  89 CALM      30.30S FOG
$$

WVZ022-031-211400-
North Central West Virginia

CITY           SKY/WX    TMP DP  RH WIND       PRES   REMARKS
CLARKSBURG     CLOUDY    29  25  85 CALM      30.30R
MORGANTOWN     CLOUDY    29  21  72 CALM      30.31R
$$

WVZ025-035-042-045-211400-
Southern West Virginia

CITY           SKY/WX    TMP DP  RH WIND       PRES   REMARKS
BECKLEY        CLEAR     27  24  89 CALM      30.22R
LOGAN            N/A     27  27 100 CALM      30.26S
BLUEFIELD      CLEAR     30  26  85 CALM      30.21R
LEWISBURG      CLOUDY    33  30  90 CALM      30.23S
$$

WVZ047-211400-
Northern Mountains of West Virginia

CITY           SKY/WX    TMP DP  RH WIND       PRES   REMARKS
ELKINS         CLOUDY    30  27  88 CALM      30.26R
$$

WVZ052-211400-
Eastern Panhandle of West Virginia

CITY           SKY/WX    TMP DP  RH WIND       PRES   REMARKS
MARTINSBURG    CLOUDY    31  22  69 CALM      30.32S
PETERSBURG     CLOUDY    33  28  84 CALM      30.31R
$$


USA.gov is the U.S. government's official web portal to all federal, state and local government web resources and services.